�N����,����,�~����,�C��,���x,�C��,����,���ϕ���,�ő�u�ԕ���,�ő厞����,���˗�,�I�_���x,�n�����x,�ő啗���N��,DTYPE
"19/10/20","00:10",0.0,18.8,94.6,1012.8,322.6,1.0,1.7,326.1,0.00,18.0,20.3,"00:00:32",1
"19/10/20","00:20",0.0,18.7,94.6,1012.6,294.3,0.8,1.7,327.4,0.00,17.9,20.4,"00:16:00",1
"19/10/20","00:30",0.0,18.6,94.7,1012.6,290.4,0.8,1.7,337.8,0.00,17.8,20.3,"00:29:28",1
"19/10/20","00:40",0.0,18.5,94.6,1012.8,290.0,0.8,2.0,238.4,0.00,17.7,20.2,"00:36:24",1
"19/10/20","00:50",0.0,18.5,94.8,1012.8,336.2,0.7,1.3,344.7,0.00,17.7,20.1,"00:45:12",1
"19/10/20","01:00",0.0,18.4,94.8,1012.6,318.8,1.0,1.4,333.1,0.00,17.6,20.2,"00:57:20",1
"19/10/20","01:10",0.0,18.5,94.9,1012.8,309.0,0.6,1.2,346.0,0.00,17.7,20.2,"01:09:52",1
"19/10/20","01:20",0.0,18.4,94.7,1012.8,290.9,0.8,1.2,336.3,0.00,17.6,20.1,"01:11:12",1
"19/10/20","01:30",0.0,18.3,94.7,1012.6,292.5,1.0,1.9,341.9,0.00,17.5,20.2,"01:29:04",1
"19/10/20","01:40",0.0,18.4,94.5,1012.8,318.4,1.2,2.5,341.7,0.00,17.5,20.0,"01:35:52",1
"19/10/20","01:50",0.0,18.4,94.2,1012.8,306.5,1.1,2.5,339.1,0.00,17.5,20.1,"01:49:44",1
"19/10/20","02:00",0.0,18.4,94.1,1012.8,319.9,1.7,2.8,308.9,0.00,17.5,20.1,"01:54:16",1
"19/10/20","02:10",0.0,18.5,94.0,1012.6,326.1,1.7,4.1,332.2,0.00,17.6,20.2,"02:04:56",1
"19/10/20","02:20",0.0,18.4,93.5,1012.6,293.0,1.5,3.3,329.3,0.00,17.4,20.1,"02:10:24",1
"19/10/20","02:30",0.0,18.4,93.3,1012.8,313.1,1.3,2.7,334.1,0.00,17.3,20.2,"02:27:36",1
"19/10/20","02:40",0.0,18.3,92.8,1013.0,334.2,1.6,3.6,28.0,0.00,17.2,20.0,"02:33:04",1
"19/10/20","02:50",0.0,18.3,92.2,1013.3,339.1,1.5,2.7,327.1,0.00,17.1,19.9,"02:45:52",1
"19/10/20","03:00",0.0,18.3,91.5,1012.8,336.4,1.7,3.3,336.7,0.00,16.9,19.9,"02:51:28",1
"19/10/20","03:10",0.0,18.2,90.7,1013.0,315.9,1.3,2.6,346.8,0.00,16.7,20.0,"03:03:12",1
"19/10/20","03:20",0.0,17.8,91.1,1012.8,310.1,0.8,1.6,327.3,0.00,16.4,20.0,"03:12:16",1
"19/10/20","03:30",0.0,17.5,91.2,1013.0,297.4,0.8,1.7,309.4,0.00,16.1,19.8,"03:20:40",1
"19/10/20","03:40",0.0,17.3,91.9,1012.8,310.6,1.3,2.4,330.8,0.00,16.0,19.7,"03:37:44",1
"19/10/20","03:50",0.0,17.2,92.0,1012.6,307.8,1.1,2.2,318.9,0.00,15.9,19.8,"03:43:12",1
"19/10/20","04:00",0.0,17.2,92.1,1012.8,299.9,1.5,2.9,318.6,0.00,15.9,19.8,"03:54:40",1
"19/10/20","04:10",0.0,17.2,91.9,1012.6,323.1,1.6,2.2,330.9,0.00,15.9,19.5,"04:03:28",1
"19/10/20","04:20",0.0,17.1,92.2,1013.0,325.1,1.7,3.2,333.7,0.00,15.9,19.5,"04:12:00",1
"19/10/20","04:30",0.0,17.2,92.0,1012.8,333.0,1.7,3.2,350.8,0.00,15.9,19.5,"04:20:48",1
"19/10/20","04:40",0.0,17.0,92.2,1013.0,322.0,1.5,2.7,337.2,0.00,15.8,19.7,"04:30:16",1
"19/10/20","04:50",0.0,17.0,92.3,1012.8,327.9,1.5,2.6,337.5,0.00,15.8,19.4,"04:43:44",1
"19/10/20","05:00",0.0,17.0,92.2,1012.8,331.8,1.3,2.4,336.0,0.00,15.8,19.6,"04:52:08",1
"19/10/20","05:10",0.0,16.9,92.7,1013.0,312.6,1.5,2.2,317.8,0.00,15.8,19.6,"05:01:04",1
"19/10/20","05:20",0.0,16.9,92.5,1013.3,294.9,0.8,1.7,322.1,0.00,15.7,19.4,"05:14:00",1
"19/10/20","05:30",0.0,16.8,92.9,1013.3,220.1,0.6,1.2,243.7,0.00,15.7,19.4,"05:27:44",1
"19/10/20","05:40",0.0,16.7,93.1,1013.8,333.5,1.3,2.1,338.6,0.00,15.6,19.4,"05:38:00",1
"19/10/20","05:50",0.0,16.6,93.5,1013.8,318.0,1.1,1.9,328.3,0.00,15.6,19.3,"05:41:36",1
"19/10/20","06:00",0.0,16.8,93.9,1013.8,301.4,1.5,2.8,259.5,0.00,15.9,19.2,"05:58:56",1
"19/10/20","06:10",0.0,17.1,93.1,1013.8,300.1,1.5,2.5,326.3,0.00,16.0,19.1,"06:03:52",1
"19/10/20","06:20",0.0,17.3,93.0,1013.5,312.1,1.8,3.6,343.1,0.00,16.2,19.2,"06:16:24",1
"19/10/20","06:30",0.0,17.4,92.7,1013.8,301.0,1.3,2.2,324.6,0.00,16.2,19.2,"06:20:40",1
"19/10/20","06:40",0.0,17.3,92.7,1014.0,301.6,1.3,2.6,331.1,0.00,16.1,19.0,"06:31:28",1
"19/10/20","06:50",0.0,17.3,92.8,1014.2,305.0,1.6,3.2,341.4,0.00,16.2,19.2,"06:49:44",1
"19/10/20","07:00",0.0,17.4,92.7,1014.2,314.1,1.8,3.9,318.9,0.00,16.2,19.0,"06:54:56",1
"19/10/20","07:10",0.0,17.6,92.4,1014.2,319.7,2.2,4.1,331.3,0.00,16.4,19.1,"07:03:44",1
"19/10/20","07:20",0.0,17.7,92.1,1014.5,300.0,1.7,3.5,318.9,0.01,16.4,19.1,"07:12:16",1
"19/10/20","07:30",0.0,17.9,91.8,1014.5,313.4,2.0,4.3,326.2,0.02,16.6,19.1,"07:28:56",1
"19/10/20","07:40",0.0,18.0,91.4,1014.9,324.2,2.3,3.7,339.5,0.04,16.6,19.0,"07:34:40",1
"19/10/20","07:50",0.0,18.6,90.9,1014.9,306.6,1.6,4.2,347.7,0.06,17.1,19.1,"07:40:40",1
"19/10/20","08:00",0.0,18.8,89.0,1014.9,304.1,1.7,3.2,255.7,0.07,17.0,18.9,"07:54:48",1
"19/10/20","08:10",0.0,19.0,87.3,1015.2,310.4,1.8,3.9,333.8,0.06,16.9,19.3,"08:07:20",1
"19/10/20","08:20",0.0,18.9,87.0,1015.2,316.5,1.7,3.6,325.0,0.06,16.7,19.3,"08:14:32",1
"19/10/20","08:30",0.0,19.1,86.5,1015.2,307.7,1.8,3.5,345.1,0.10,16.8,19.4,"08:29:44",1
"19/10/20","08:40",0.0,19.4,85.7,1015.2,313.1,2.0,3.9,319.0,0.11,17.0,19.3,"08:30:24",1
"19/10/20","08:50",0.0,19.3,86.0,1014.7,303.3,1.7,4.1,326.4,0.08,16.9,19.3,"08:44:16",1
"19/10/20","09:00",0.0,19.4,85.3,1015.2,307.7,1.3,2.4,329.9,0.11,16.9,19.4,"08:56:16",1
"19/10/20","09:10",0.0,20.1,83.9,1015.4,312.8,1.6,3.2,331.5,0.16,17.3,19.6,"09:07:20",1
"19/10/20","09:20",0.0,20.2,83.5,1015.4,322.7,2.1,4.5,340.6,0.16,17.4,19.4,"09:10:40",1
"19/10/20","09:30",0.0,20.2,82.7,1015.2,317.8,2.0,3.5,330.5,0.16,17.2,19.5,"09:28:40",1
"19/10/20","09:40",0.0,20.8,82.4,1015.4,290.8,1.3,4.0,343.5,0.28,17.7,19.6,"09:34:56",1
"19/10/20","09:50",0.0,20.4,82.1,1014.7,290.0,1.3,2.9,324.5,0.20,17.3,19.9,"09:46:24",1
"19/10/20","10:00",0.0,20.8,82.7,1015.2,328.3,2.3,4.4,331.1,0.23,17.8,20.0,"09:58:08",1
"19/10/20","10:10",0.0,20.7,81.0,1014.9,322.6,1.8,4.0,342.3,0.31,17.4,20.1,"10:00:02",1
"19/10/20","10:20",0.0,22.1,79.2,1014.5,311.8,1.5,3.6,355.0,0.44,18.4,20.2,"10:11:20",1
"19/10/20","10:30",0.0,22.4,77.3,1014.5,314.0,1.0,3.7,342.3,0.48,18.3,20.6,"10:28:56",1
"19/10/20","10:40",0.0,21.4,77.0,1014.5,304.9,1.2,2.9,339.5,0.20,17.2,20.8,"10:32:08",1
"19/10/20","10:50",0.0,21.8,76.3,1014.0,339.3,1.5,4.2,330.5,0.19,17.5,20.9,"10:47:44",1
"19/10/20","11:00",0.0,21.5,74.8,1013.8,341.2,1.7,4.9,347.5,0.17,16.9,20.9,"10:59:20",1
"19/10/20","11:10",0.0,21.2,75.4,1013.8,344.1,2.3,4.4,321.6,0.12,16.7,21.0,"11:06:40",1
"19/10/20","11:20",0.0,21.7,74.2,1013.8,332.2,1.6,4.8,335.6,0.27,16.9,21.1,"11:19:06",1
"19/10/20","11:30",0.0,21.7,73.4,1014.0,342.4,1.7,3.9,335.1,0.30,16.8,21.2,"11:23:36",1
"19/10/20","11:40",0.0,21.9,71.7,1013.8,336.2,2.1,5.5,340.4,0.41,16.6,21.2,"11:37:52",1
"19/10/20","11:50",0.0,21.8,72.6,1013.8,335.4,2.3,6.0,343.4,0.30,16.7,21.3,"11:41:44",1
"19/10/20","12:00",0.2,22.0,71.8,1014.2,350.3,2.3,5.8,43.8,0.35,16.7,21.3,"11:52:08",1
"19/10/20","12:10",0.0,22.1,70.0,1013.8,9.2,2.0,3.9,348.6,0.33,16.4,21.5,"12:05:28",1
"19/10/20","12:20",0.0,22.5,67.5,1013.0,14.2,1.7,3.5,69.3,0.36,16.2,21.7,"12:15:20",1
"19/10/20","12:30",0.0,22.1,69.9,1013.0,350.1,1.5,4.0,338.6,0.22,16.4,21.7,"12:24:00",1
"19/10/20","12:40",0.0,22.7,65.3,1012.8,0.0,1.7,3.3,326.3,0.42,15.9,21.8,"12:32:56",1
"19/10/20","12:50",0.0,23.2,65.9,1012.1,322.1,1.6,4.4,318.2,0.50,16.5,21.8,"12:45:38",1
"19/10/20","13:00",0.0,22.6,64.9,1012.3,10.4,2.3,4.4,340.8,0.32,15.7,22.0,"12:51:20",1
"19/10/20","13:10",0.0,21.9,68.2,1012.8,347.8,2.2,4.5,332.0,0.18,15.8,22.0,"13:05:32",1
"19/10/20","13:20",0.0,22.8,65.6,1012.8,358.7,2.7,6.8,342.0,0.45,16.1,22.1,"13:19:12",1
"19/10/20","13:30",0.0,22.0,66.2,1012.3,348.8,2.5,5.4,347.6,0.28,15.4,22.2,"13:21:44",1
"19/10/20","13:40",0.0,22.1,66.4,1012.6,3.0,2.2,4.1,325.8,0.21,15.6,22.2,"13:32:08",1
"19/10/20","13:50",0.0,22.4,67.3,1012.3,358.9,2.1,4.3,0.4,0.24,16.1,22.3,"13:43:44",1
"19/10/20","14:00",0.0,21.9,65.8,1012.1,341.9,1.5,3.5,345.7,0.17,15.3,22.2,"13:59:28",1
"19/10/20","14:10",0.0,21.5,68.5,1012.1,341.3,1.8,3.3,339.5,0.11,15.5,22.2,"14:07:52",1
"19/10/20","14:20",0.0,22.4,64.2,1012.1,330.7,2.1,5.0,337.2,0.31,15.3,22.2,"14:19:12",1
"19/10/20","14:30",0.0,22.3,65.4,1012.6,335.7,2.6,6.7,328.8,0.23,15.5,22.2,"14:22:56",1
"19/10/20","14:40",0.0,22.9,63.4,1012.1,359.0,1.5,3.5,16.8,0.31,15.6,22.3,"14:32:16",1
"19/10/20","14:50",0.0,22.6,62.5,1012.1,1.5,2.0,3.6,356.6,0.28,15.1,22.4,"14:43:36",1
"19/10/20","15:00",0.0,21.5,66.1,1012.3,350.3,2.1,4.7,22.9,0.10,14.9,22.3,"14:50:56",1
"19/10/20","15:10",0.0,22.3,66.8,1012.3,344.3,1.3,3.7,0.9,0.22,15.9,22.3,"15:02:08",1
"19/10/20","15:20",0.0,21.5,65.7,1012.6,340.0,1.8,4.1,349.0,0.16,14.9,22.3,"15:16:32",1
"19/10/20","15:30",0.0,20.9,67.3,1012.6,339.2,2.3,5.1,334.0,0.10,14.7,22.2,"15:29:12",1
"19/10/20","15:40",0.0,20.9,67.5,1012.6,337.4,2.6,5.5,318.2,0.12,14.7,22.2,"15:32:00",1
"19/10/20","15:50",0.0,21.0,66.4,1012.8,335.1,2.5,5.0,347.2,0.12,14.5,22.0,"15:46:16",1
"19/10/20","16:00",0.0,21.0,66.7,1012.8,340.0,3.0,5.0,324.5,0.14,14.6,22.0,"15:50:40",1
"19/10/20","16:10",0.0,20.9,67.8,1012.8,329.8,2.6,4.9,303.7,0.11,14.8,22.0,"16:03:04",1
"19/10/20","16:20",0.0,21.0,67.2,1013.0,342.2,2.5,5.5,344.2,0.08,14.7,21.9,"16:12:40",1
"19/10/20","16:30",0.0,20.7,66.5,1013.3,334.9,2.2,4.0,345.7,0.06,14.3,21.9,"16:23:44",1
"19/10/20","16:40",0.0,20.4,66.7,1013.0,327.9,2.5,6.2,345.6,0.05,14.0,21.7,"16:38:08",1
"19/10/20","16:50",0.0,20.2,67.4,1013.0,340.9,2.0,4.9,335.3,0.03,14.0,21.8,"16:41:44",1
"19/10/20","17:00",0.0,20.0,68.3,1013.3,333.8,1.5,2.9,341.8,0.02,14.0,21.5,"16:51:12",1
"19/10/20","17:10",0.0,19.8,69.0,1013.3,326.5,1.2,2.6,331.5,0.01,14.0,21.6,"17:03:36",1
"19/10/20","17:20",0.0,19.5,70.5,1013.3,335.1,1.0,2.6,333.5,0.00,14.0,21.5,"17:12:32",1
"19/10/20","17:30",0.0,19.2,71.7,1013.3,336.2,1.2,3.5,340.0,0.00,14.0,21.2,"17:23:12",1
"19/10/20","17:40",0.0,18.8,72.5,1013.8,312.3,1.0,1.9,321.9,0.00,13.8,21.1,"17:34:40",1
"19/10/20","17:50",0.0,18.6,73.8,1013.8,316.4,1.3,2.4,333.5,0.00,13.9,21.3,"17:48:48",1
"19/10/20","18:00",0.0,18.5,74.4,1013.5,323.9,1.8,4.2,337.4,0.00,13.9,21.1,"17:54:40",1
"19/10/20","18:10",0.0,18.5,74.4,1013.8,315.0,1.8,4.4,341.2,0.00,13.9,21.1,"18:04:56",1
"19/10/20","18:20",0.0,18.5,75.0,1013.5,323.9,2.3,4.3,349.9,0.00,14.0,21.0,"18:10:48",1
"19/10/20","18:30",0.0,18.5,75.5,1014.0,314.8,2.0,3.9,331.1,0.00,14.1,20.9,"18:25:52",1
"19/10/20","18:40",0.0,18.3,76.1,1014.0,323.8,1.8,3.5,334.2,0.00,14.1,20.9,"18:36:32",1
"19/10/20","18:50",0.0,18.2,76.7,1014.0,315.8,2.1,4.4,332.4,0.00,14.1,20.7,"18:45:20",1
"19/10/20","19:00",0.0,18.2,77.2,1014.0,321.0,2.0,4.7,333.9,0.00,14.2,20.7,"18:54:08",1
"19/10/20","19:10",0.0,18.1,77.5,1014.2,324.2,2.2,4.1,321.8,0.00,14.1,20.5,"19:00:48",1
"19/10/20","19:20",0.0,18.0,77.9,1014.5,321.1,2.1,4.3,326.6,0.00,14.1,20.6,"19:14:00",1
"19/10/20","19:30",0.0,17.9,78.0,1014.0,317.9,1.7,4.1,337.1,0.00,14.1,20.5,"19:22:48",1
"19/10/20","19:40",0.0,17.8,78.4,1014.0,315.3,1.5,3.3,335.3,0.00,14.0,20.5,"19:36:56",1
"19/10/20","19:50",0.0,17.6,78.4,1014.5,302.7,1.1,2.0,318.1,0.00,13.8,20.1,"19:40:24",1
"19/10/20","20:00",0.0,17.5,79.1,1014.0,314.6,0.8,1.9,342.1,0.00,13.9,20.2,"19:52:56",1
"19/10/20","20:10",0.0,17.2,78.9,1013.8,299.3,0.8,2.4,312.2,0.00,13.5,20.2,"20:09:12",1
"19/10/20","20:20",0.0,17.1,79.6,1014.0,320.3,0.7,2.1,325.2,0.00,13.6,20.1,"20:14:40",1
"19/10/20","20:30",0.0,17.0,80.2,1014.0,317.3,1.5,2.8,332.6,0.00,13.6,20.0,"20:29:44",1
"19/10/20","20:40",0.0,17.1,80.1,1013.8,326.2,1.6,3.4,336.1,0.00,13.7,19.7,"20:37:04",1
"19/10/20","20:50",0.0,17.2,79.9,1014.0,323.2,1.6,3.5,337.8,0.00,13.7,19.9,"20:48:08",1
"19/10/20","21:00",0.0,17.2,79.8,1014.2,326.8,1.8,4.3,339.3,0.00,13.7,19.9,"20:54:56",1
"19/10/20","21:10",0.0,17.1,79.5,1014.0,326.9,0.8,2.1,336.1,0.00,13.6,19.8,"21:00:24",1
"19/10/20","21:20",0.0,16.8,80.1,1014.2,291.3,0.3,1.6,284.5,0.00,13.4,19.7,"21:18:48",1
"19/10/20","21:30",0.0,16.6,80.8,1014.5,294.1,0.8,1.8,317.4,0.00,13.3,19.6,"21:22:24",1
"19/10/20","21:40",0.0,16.5,81.6,1014.2,282.2,1.1,2.1,239.7,0.00,13.4,19.4,"21:30:32",1
"19/10/20","21:50",0.0,16.0,82.7,1014.2,305.8,1.0,1.8,320.0,0.00,13.1,19.6,"21:44:56",1
"19/10/20","22:00",0.0,15.8,84.5,1013.8,326.8,1.1,1.7,327.1,0.00,13.2,19.6,"21:52:56",1
"19/10/20","22:10",0.0,15.4,85.5,1014.2,308.0,1.1,1.6,322.3,0.00,13.0,19.5,"22:00:56",1
"19/10/20","22:20",0.0,15.1,86.9,1014.0,316.7,1.2,1.7,325.0,0.00,13.0,19.6,"22:17:28",1
"19/10/20","22:30",0.0,15.0,88.3,1014.2,319.0,1.3,1.8,322.6,0.00,13.1,19.3,"22:24:00",1
"19/10/20","22:40",0.0,14.9,88.8,1014.2,313.0,1.2,2.0,340.6,0.00,13.1,19.2,"22:31:12",1
"19/10/20","22:50",0.0,15.1,89.3,1014.2,333.0,1.5,2.5,343.2,0.00,13.4,19.4,"22:43:12",1
"19/10/20","23:00",0.0,15.2,89.5,1013.5,305.8,1.1,1.8,311.2,0.00,13.5,19.3,"22:54:00",1
"19/10/20","23:10",0.0,15.3,89.5,1014.0,279.5,1.0,1.3,284.8,0.00,13.6,19.1,"23:07:12",1
"19/10/20","23:20",0.0,15.3,89.6,1014.0,276.1,1.0,1.1,266.7,0.00,13.6,19.2,"23:10:40",1
"19/10/20","23:30",0.0,15.1,89.8,1014.2,299.4,0.8,1.3,318.6,0.00,13.5,19.1,"23:27:44",1
"19/10/20","23:40",0.0,14.9,90.3,1014.2,307.1,1.3,2.0,321.7,0.00,13.4,19.0,"23:34:56",1
"19/10/20","23:50",0.0,14.9,90.8,1013.8,303.3,1.2,2.0,311.7,0.00,13.5,19.1,"23:48:00",1
"19/10/20","24:00",0.0,15.2,90.7,1013.5,313.6,1.6,2.7,320.6,0.00,13.7,19.0,"23:56:32",1
